www.pogodaiklimat.ru
ПОГОДА в Карымской

Архив погоды в Карымской (Забайкальский край, Россия)

Время
(UTC), дата
09 8.07
12 8.07
15 8.07
18 8.07
21 8.07
00 9.07
03 9.07
06 9.07
09 9.07
12 9.07
15 9.07
18 9.07
21 9.07
00 10.07
03 10.07
06 10.07
09 10.07
12 10.07
15 10.07
18 10.07
21 10.07
00 11.07
03 11.07
06 11.07
09 11.07
12 11.07
15 11.07
18 11.07
21 11.07
00 12.07
03 12.07
06 12.07
09 12.07
12 12.07
15 12.07
18 12.07
21 12.07
00 13.07
03 13.07
06 13.07
09 13.07
12 13.07
15 13.07
18 13.07
21 13.07
00 14.07
03 14.07
06 14.07
09 14.07
12 14.07
18 14.07
21 14.07
00 15.07
03 15.07
06 15.07
Ветер
(напр.,м/с)
Видим. Явления Облачность Т
(С)
Тd
(С)
f
(%)
Тe
(С)
Тes
(С)
Комфортность P
(гПа)
Po
(гПа)
Тmin
(С)
Tmax
(С)
R
(мм)
R24
(мм)
S
(см)
Ю 1 10 км в посл. час гроза 10/8 600 м
[Cb cap Ci sp]
+24.1 +16.6 63 +28 +28 душно 1005.1 937.3
З 2 10 км дым {гроза} 10/10 600 м
[Cb cap]
+22.0 +16.9 73 +26 +26 душно 1005.6 937.3 +32.4 4
СЗ 1 н/о дым 10/10 600 м
[Cb cap]
+17.5 +15.7 89 +19 +19 1008.2 938.7
штиль 0 н/о 10/10
[Cb cap]
+14.4 +13.4 94 +14 +14 1009.0 938.7
СВ 1 10 км дым 10/6 600 м
[Cb cap Ci sp]
+12.8 +12.0 95 +13 +13 1009.5 938.7
СВ 1 н/о {туман} н/о +19.2 +14.2 73 +22 +22 комфорт 1006.3 937.3 +12.8
З 1 10 км дым 8/0
[Ci sp]
+27.1 +16.1 51 +30 +36 душно 1004.4 937.3
З 1 20 км дым 8/4 600 м
[Cu med, cong Ci sp]
+31.9 +13.1 32 +33 +38 жарко 1000.6 934.7
ЮЗ 3 {12} 20 км дым {гроза} 8/4 600 м
[Cu med, cong Ci sp]
+32.6 +12.2 29 +33 +34 жарко 999.0 933.3
СЗ 1 10 км дым {гроза} 4/0
[Ac lent Ci fib]
+28.3 +15.6 46 +31 +31 душно 1001.4 934.7 +33.3
СЗ 1 н/о дым 4/0
[Ci sp]
+20.0 +14.9 73 +23 +23 комфорт 1003.7 935.0
В 1 н/о дым 3/0
[Ci sp]
+16.7 +14.0 84 +18 +18 1005.6 936.0
штиль 0 10 км дым 4/0
[Ci fib]
+14.3 +13.2 93 +14 +14 1006.2 936.0
З 1 10 км дым 4/0
[Ci fib]
+19.3 +15.0 76 +22 +26 комфорт 1004.9 936.0 +13.9
З 1 10 км дым 4/1 600 м
[Cu hum Ci sp]
+29.6 +13.8 38 +31 +42 жарко 1001.1 934.7
СЗ 1 10 км дым 8/6 600 м
[Cb cap Ci sp]
+34.4 +12.1 26 +34 +40 очень жарко 998.6 933.3
ЮЗ 2 10 км дым 8/5 600 м
[Cb cap Ci sp]
+34.6 +10.4 23 +34 +35 очень жарко 995.8 930.7
З 1 20 км дым 9/4 600 м
[Cb cap Ci sp]
+30.0 +13.2 36 +31 +31 жарко 997.6 931.4 +34.7
СВ 1 н/о 6/0
[Ci sp]
+21.5 +13.9 62 +24 +24 комфорт 1000.1 932.0
штиль 0 н/о 6/0
[Ci sp]
+17.3 +13.6 79 +17 +17 1001.1 932.0
С 1 20 км дым 6/0
[Ac lent Ci sp]
+15.2 +12.9 86 +16 +16 1003.1 933.3
штиль 0 20 км дым 6/0
[Ci sp]
+20.8 +14.2 66 +23 +27 комфорт 1001.6 933.3 +14.4
СЗ 1 1000 м мгла ?/? +31.7 +13.9 34 +33 +33 жарко 997.8 932.0
В 3 20 км в посл. час гроза 9/9 600 м
[Cb cap]
+30.7 +13.0 34 +32 +33 жарко 996.6 930.7
В 6-10 {10} 20 км дым 6/4 600 м
[Cb cap Ci sp]
+31.3 +14.0 35 +33 +34 жарко 996.4 930.7
СВ 3 {10} 10 км дым 8/6 600 м
[Cb cap Ci sp]
+28.4 +13.1 39 +30 +30 жарко 998.5 932.0 +35.2
СВ 3 н/о дым 4/3 600 м
[Cb cap Ci sp]
+24.1 +14.6 55 +27 +27 жарко 1000.2 932.7
СВ 2 н/о дым 4/0 600 м +20.7 +14.1 66 +24 +24 комфорт 1001.7 933.3
В 2 10 км дым 3/3 600 м
[Cb cap Ci sp]
+19.5 +14.7 74 +22 +22 комфорт 1001.9 933.3
В 2 {10} 10 км дым {гроза} 8/6 600 м
[Cb cap Ci sp]
+21.2 +17.0 77 +25 +27 комфорт 1001.5 933.3 +19.2 +35.2
В 2 4000 м дым 8/0
[Ci sp]
+28.0 +16.1 48 +31 +36 душно 1000.0 933.3
В 3 10 км дым 8/0
[Ci sp]
+32.6 +14.2 33 +34 +38 очень жарко 997.5 932.0
ЮЗ 1 10 км в посл. час гроза 10/6 600 м
[Cb cap Ci sp]
+25.0 +16.4 59 +28 +28 жарко 999.2 932.0
ЮЗ 1 {12} 10 км дым {гроза} 8/3 600 м
[Cb cap Ci sp]
+23.4 +17.1 68 +29 +29 душно 1000.9 933.3 +33.5
Ю 2 {13} н/о слаб. ливневой дождь 10/10 600 м
[Cb cap]
+20.1 +16.7 81 +24 +24 комфорт 1004.6 936.0
СВ 1 н/о {ливн. дождь} 10/10 600 м
[Cb cap]
+19.8 +16.0 79 +23 +23 комфорт 1003.3 934.7
С 1 50 км 10/6 600 м
[Cb cap Ci sp]
+18.6 +16.0 85 +21 +21 комфорт 1005.0 936.0
СВ 1 10 км дым 10/8 600 м
[Cb cap Ci sp]
+19.7 +16.1 80 +23 +23 комфорт 1004.8 936.0 +18.3 3
З 1 10 км дым 9/8 600 м
[Cb cap Ci sp]
+22.5 +16.3 68 +27 +29 душно 1004.1 936.0
СВ 1 10 км дым 9/6 600 м
[Cb cap Ac As Ci sp]
+26.3 +15.6 52 +29 +31 жарко 1001.8 934.7
ЮЗ 5 10 км дым 9/6 600 м
[Cb cap Ac As Ci sp]
+26.3 +15.3 51 +29 +30 жарко 1001.8 934.7
Ю 1 10 км дым 9/6 600 м
[Cb cap Ac trans Ci sp]
+23.2 +15.3 61 +27 +27 душно 1002.5 934.7 +27.1
штиль 0 н/о дым 8/4 600 м
[Cb cap Ci sp]
+19.9 +16.3 80 +22 +22 комфорт 1004.7 936.0
З 2 н/о дым 4/3 600 м
[Cb cap Ci sp]
+18.7 +15.9 84 +20 +20 1005.0 936.0
З 3 50 км 8/4 600 м
[Cb cap Ci sp]
+17.8 +15.4 86 +18 +18 1005.2 936.0
З 6 50 км 6/3 600 м
[Cu med, cong Ci sp]
+21.0 +14.2 65 +24 +25 комфорт 1004.5 936.0 +17.6
З 6 {10} 50 км 8/6 600 м
[Cb cap Ci sp]
+24.0 +12.3 48 +26 +28 жарко 1003.8 936.0
З 7-12 {12} 50 км 6/4 600 м
[Cu med, cong Ci sp]
+26.1 +11.0 39 +27 +29 жарко 1003.4 936.0
З 3 {12} 50 км 3/1 600 м
[Cu hum Ci sp]
+26.9 +10.1 35 +27 +31 жарко 1003.2 936.0
СЗ 2 50 км 4 балла +24.9 +10.4 40 +26 +26 жарко 1003.7 936.0 +27.6
штиль 0 н/о 2 балла +13.9 +9.7 76 +14 +14 1006.4 936.0
З 1 50 км 7 баллов +11.3 +8.7 84 +11 +11 1008.4 937.3
ЮЗ 3 50 км 10 баллов +18.3 +10.4 60 +19 +19 1006.7 937.3 +10.9
З 3 50 км 10 баллов +25.2 +7.8 33 +25 +25 комфорт 1002.3 934.7
З 4 50 км 10 баллов +25.9 +7.5 31 +26 +26 жарко 1002.1 934.7
Местоположение метеостанции Карымская (Забайкальский край, Россия): широта 51.63 долгота 114.30 высота над уровнем моря 616 м.
В архиве по умолчанию представлена погода в Карымской за последнюю неделю. Архивные данные за месяц целиком и за предыдущие месяцы, начиная с января 2011 года, Вы можете получить, выбрав интересующий диапазон дат из раскрывающегося списка и нажав кнопку "Найти!".
*Определитесь, кто Вы:
Внимание! Время в таблицах - всемирное. Для получения местного времени необходимо прибавить поправку, которая равна 9 ч.
Некоторые строки с данными для отдельных станций могут быть выделены курсивом. Это означает, что фактические данные отсутствуют по различным причинам, а приведенные значения являются расчетными модельными данными для данного пункта наблюдений.
Смотрите также архив погоды в соседних городах и на ближайших метеорологических станциях:
Партнеры нашего сайта:      
Пояснения к столбцам:
  • Ветер - указаны скорость ветра в м/с - средняя за 10 мин, порывы в срок и между сроками (в фигурных скобках) и направление, откуда дует ветер: С - северный,
  • СВ - северо-восточный, В - восточный, ЮВ - юго-восточный, Ю - южный, ЮЗ - юго-западный, З - западный, СЗ - северо-западный.
  • Видимость - горизонтальная дальность видимости в метрах или километрах. При видимости от 1 до 10 км при отсутствии осадков обычно наблюдается дымка, при ухудшении видимости до 1 км и менее - туман. В сухую погоду видимость может ухудшаться дымом, пылью или мглою.
  • Явления - указаны атмосферные явления, наблюдавшиеся в срок или в последний час перед сроком; фигурными скобками обозначены явления, наблюдавшиеся между сроками (за 1-3 часа до срока); квадратными скобками обозначены град или гололедные отложения с указанием их диаметра в мм.
  • Облачность - указаны через наклонную черту общая и нижняя облачность в баллах и высота нижней границы облаков в метрах; квадратными скобками обозначены формы облаков: Ci - перистые, Cs - перисто-слоистые, Cc - перисто-кучевые, Ac - высококучевые, As - высокослоистые, Sc - слоисто-кучевые, Ns - слоисто-дождевые, Cu - кучевые, Cb - кучево-дождевые. Подробнее классификацию облаков см. в Атласе облаков (PDF).
  • T - Температура воздуха - температура, измеренная на высоте 2 м над землей.
  • Td - Температура точки росы - температура, при понижении до которой содержащийся в воздухе водяной пар достигнет насыщения.
  • f - Относительная влажность воздуха - влажноcть воздуха, измеренная на высоте 2 м над землей.
  • Te - Эффективная температура - температура, которую ощущает одетый по сезону человек в тени. Характеристика душности погоды. При расчете учитывается влияние влажности воздуха и скорости ветра на теплоощущения человека.
  • Tes - Эффективная температура на солнце - температура, которую ощущает человек, с поправкой на солнечный нагрев. Характеристика знойности погоды. Зависит от высоты солнца над горизонтом, облачности и скорости ветра. Ночью, в пасмурную погоду, а также при ветре 12 м/с и более поправка равна нулю.
  • P - Атмосферное давление - приведенное к уровню моря атмосферное давление.
  • Po - Атмосферное давление - измеренное на уровне метеостанции атмосферное давление.
  • Tmin - Минимальная температура - минимум температуры воздуха на высоте 2 м над землей.
  • Tmax - Максимальная температура - максимум температуры воздуха на высоте 2 м над землей.
  • R - Количество осадков - Количество выпавших осадков за период времени, мм. При наведении курсора мыши на число - период времени, за который выпало указанное количество осадков.
  • R24 - Количество осадков - Количество выпавших осадков за 24 часа, мм.
  • S - Снежный покров - Высота снежного покрова, см. При наведении курсора мыши на число - состояние снежного покрова и степень покрытия местности в баллах.